Вернуться в каталог

THOR ABLESTAR DEB

АктивенLEO
NORAD 210·DEBRIS·🇺🇸 United States

Запущен Jun 29, 1961 с Cape Canaveral Space Force Station

Loading…

Ближайшие Пролёты (ближайшие 24 часа)

TLE

СвежийSource: Space-Track

Эпоха: Sep 5, 2026, 11:34 UTC

1 00210U 61015BE  26248.48239641  .00000255  00000-0  27175-3 0  9992
2 00210  66.4570 167.3268 0053639 263.6820  95.8144 13.89153453276557

Отслеживайте THOR ABLESTAR DEB в реальном времени с AllMySat

Download on the App Store